User: anonymous   Login
Location: Demmingen
(48.6757°N, 10.4375°E)
Time: 14:20:07
(UTC+00:00)
Language:

Cosmos 1455 Rocket - Orbit

View from above orbital plane
View from above orbital plane
View from above satellite
View from above satellite

Ground track
Ground track

The orbit data is extracted from the following two-line orbital elements,

1 14033U 83037B   24202.91442162  .00001049  00000-0  11995-3 0  9993
2 14033  82.5055  73.8654 0016633 202.6229 157.4255 14.85034057842733
Epoch (UTC): 20 July 2024 21:56:46
Eccentricity: 0.0016633
inclination: 82.5055°
perigee height: 602 km
apogee height: 625 km
right ascension of ascending node: 73.8654°
argument of perigee: 202.6229°
revolutions per day: 14.85034057
mean anomaly at epoch: 157.4255°
orbit number at epoch: 84273

The dashed part of the orbit path shows where the satellite is in the earth's shadow,  

DLR